星链-33544 (STARLINK-33544)

导读

STARLINK-33554是美国太空探索技术公司(SpaceX)星链(Starlink)互联网星座中的一颗卫星,于2024年12月8日由美国发射升空。它属于Starblock Group 8-9任务批次,是Starlink近地轨道互联网卫星,星链通过批量组网实现全球低延迟高速互联网覆盖,该卫星进一步完善了星链星座的服务能力。

基本信息
目录编号:
62281
目录名称:
STARLINK-33544
国际标识:
2024-237Q
轨道中心:
EARTH
卫星名称:
星链-33544
卫星全名:
星链-33544 (STARLINK-33544)
卫星状态:
在轨 (已飞行553 天)
发射日期:
2024-12-08 UTC
国别 :
美国 (US)
星等 :
--
轨道信息
数据来源 国际轨道数据
星历时间: 2026-06-13T06:06:38+0800
1天前
查看轨道信息
半长轴: 6861.091km
偏心率: 0.0002807
轨道倾角: 43.010°
近地点辐角 276.397°
升交点赤经 38.785°
平近点角 83.656°
近地点: 481.028km
远地点: 484.88km
周期: 94.265分钟
每日圈数: 15.276118
详细信息
固有亮度:
5
最大亮度:
2.5
卫星平台:
Starlink V1.0
覆盖范围:
全球
运营商:
太空探索技术公司
运营商所在国:
美国
制造商(研发单位):
太空探索技术公司
制造商所在国:
美国
使用方式:
暂无
卫星简介
Starlink 计划是 SpaceX 推出的全球卫星互联网项目,通过发射低轨道卫星,为全球尤其是偏远地区提供高速、低延迟的互联网服务。自 2019 年起,Starlink 已部署数千颗卫星,旨在缩小全球数字鸿沟,推动互联网普及。该项目还为军事、航空等行业提供通信支持,带来广泛经济效益。
2D轨道图
3D轨道图
轨道高度分析图
轨道倾角分析图
轨道综合分析图
查看轨道综合分析图